| time (UTC) | temp F | wind direction | speed MPH | gust MPH | rain 1hr in | rain 24hr in | rain mn in | humidity % | barometer mb |
| 20260508004046 | 55 | 0 | 0.0 | 0.0 | 0.00 | 0.91 | 0.81 | 93 | 1012.0 |
| 20260508003545 | 55 | 0 | 0.0 | 0.0 | 0.00 | 0.91 | 0.81 | 93 | 1012.0 |
| 20260508003055 | 55 | 0 | 0.0 | 0.0 | 0.00 | 0.91 | 0.81 | 94 | 1011.9 |
| 20260508002547 | 55 | 0 | 0.0 | 0.0 | 0.00 | 0.91 | 0.81 | 94 | 1011.9 |
| 20260508002048 | 55 | 0 | 0.0 | 0.0 | 0.00 | 0.91 | 0.81 | 94 | 1011.8 |
| 20260508001556 | 55 | 0 | 0.0 | 0.0 | 0.00 | 0.91 | 0.81 | 93 | 1011.9 |
| 20260508001048 | 55 | 0 | 0.0 | 0.0 | 0.00 | 0.91 | 0.81 | 93 | 1011.9 |
| 20260508000547 | 56 | 0 | 0.0 | 0.0 | 0.00 | 0.91 | 0.81 | 93 | 1011.9 |
| 20260508000050 | 56 | 0 | 0.0 | 0.0 | 0.00 | 0.91 | 0.81 | 93 | 1011.9 |
| 20260507235548 | 56 | 0 | 0.0 | 0.0 | 0.00 | 0.91 | 0.81 | 93 | 1011.8 |
| 20260507235048 | 56 | 0 | 0.0 | 0.0 | 0.00 | 0.91 | 0.81 | 93 | 1011.8 |
| 20260507234555 | 56 | 0 | 0.0 | 0.0 | 0.00 | 0.91 | 0.81 | 93 | 1011.7 |
| 20260507234048 | 56 | 0 | 0.0 | 0.0 | 0.00 | 0.91 | 0.81 | 93 | 1011.6 |
| 20260507233549 | 56 | 0 | 0.0 | 1.0 | 0.00 | 0.91 | 0.81 | 93 | 1011.5 |
| 20260507233055 | 56 | 0 | 0.0 | 1.0 | 0.00 | 0.91 | 0.81 | 93 | 1011.3 |
| 20260507232546 | 56 | 0 | 0.0 | 1.0 | 0.00 | 0.91 | 0.81 | 93 | 1011.1 |
| 20260507232048 | 56 | 154 | 0.0 | 2.0 | 0.00 | 0.91 | 0.81 | 93 | 1011.0 |
| 20260507231559 | 56 | 0 | 0.0 | 3.0 | 0.00 | 0.91 | 0.81 | 93 | 1011.0 |
| 20260507231047 | 57 | 0 | 0.0 | 3.0 | 0.00 | 0.91 | 0.81 | 93 | 1011.0 |
| 20260507230548 | 56 | 0 | 0.0 | 7.0 | 0.00 | 0.91 | 0.81 | 93 | 1011.0 |
| 20260507225548 | 56 | 0 | 0.0 | 6.0 | 0.00 | 0.91 | 0.81 | 93 | 1010.7 |
| 20260507225051 | 56 | 0 | 0.0 | 2.0 | 0.00 | 0.91 | 0.81 | 93 | 1010.6 |
| 20260507224557 | 56 | 0 | 0.0 | 5.0 | 0.00 | 0.91 | 0.81 | 93 | 1010.5 |
| 20260507224046 | 56 | 137 | 0.0 | 5.0 | 0.00 | 0.91 | 0.81 | 93 | 1010.5 |
| 20260507223547 | 56 | 67 | 0.0 | 5.0 | 0.00 | 0.91 | 0.81 | 93 | 1010.4 |
| 20260507223054 | 56 | 0 | 1.0 | 5.0 | 0.00 | 0.91 | 0.81 | 94 | 1010.1 |
| 20260507222547 | 56 | 150 | 0.0 | 2.0 | 0.00 | 0.91 | 0.81 | 94 | 1010.1 |
| 20260507222048 | 56 | 0 | 0.0 | 2.0 | 0.00 | 0.91 | 0.81 | 93 | 1010.3 |
| 20260507221556 | 56 | 0 | 0.0 | 1.0 | 0.00 | 0.91 | 0.81 | 93 | 1010.4 |
| 20260507221047 | 56 | 0 | 0.0 | 7.0 | 0.00 | 0.91 | 0.81 | 93 | 1010.4 |
| 20260507220545 | 56 | 0 | 1.0 | 7.0 | 0.00 | 0.91 | 0.81 | 93 | 1010.4 |
| 20260507220055 | 56 | 0 | 1.0 | 4.0 | 0.00 | 0.91 | 0.81 | 92 | 1010.3 |
| 20260507215546 | 56 | 104 | 1.0 | 4.0 | 0.00 | 0.91 | 0.81 | 93 | 1010.1 |
| 20260507215048 | 56 | 0 | 1.0 | 3.0 | 0.00 | 0.91 | 0.81 | 93 | 1010.0 |
| 20260507214616 | 56 | 24 | 0.0 | 2.0 | 0.00 | 0.91 | 0.81 | 93 | 1009.9 |
| 20260507214047 | 56 | 160 | 0.0 | 2.0 | 0.00 | 0.91 | 0.81 | 93 | 1010.1 |
| 20260507213547 | 56 | 177 | 0.0 | 2.0 | 0.00 | 0.91 | 0.81 | 93 | 1010.0 |
| 20260507213106 | 56 | 0 | 0.0 | 7.0 | 0.00 | 0.91 | 0.81 | 93 | 1010.0 |
| 20260507212546 | 56 | 0 | 1.0 | 7.0 | 0.00 | 0.91 | 0.81 | 93 | 1009.8 |
| 20260507212050 | 56 | 200 | 1.0 | 7.0 | 0.00 | 0.91 | 0.81 | 93 | 1009.8 |
| 20260507211612 | 56 | 225 | 1.0 | 7.0 | 0.00 | 0.91 | 0.81 | 93 | 1009.8 |
| 20260507211047 | 56 | 77 | 1.0 | 11.0 | 0.01 | 0.91 | 0.81 | 93 | 1009.9 |
| 20260507210547 | 56 | 0 | 2.0 | 11.0 | 0.02 | 0.91 | 0.81 | 92 | 1010.1 |
| 20260507210059 | 57 | 273 | 0.0 | 4.0 | 0.13 | 0.91 | 0.81 | 93 | 1010.0 |
| 20260507205552 | 57 | 0 | 0.0 | 3.0 | 0.29 | 0.91 | 0.81 | 93 | 1009.8 |
| 20260507205046 | 56 | 0 | 1.0 | 7.0 | 0.39 | 0.91 | 0.81 | 93 | 1010.0 |
| 20260507204601 | 56 | 204 | 0.0 | 7.0 | 0.48 | 0.91 | 0.81 | 93 | 1009.8 |
| 20260507204049 | 56 | 178 | 1.0 | 7.0 | 0.48 | 0.91 | 0.81 | 92 | 1010.0 |
| 20260507203546 | 57 | 173 | 0.0 | 4.0 | 0.48 | 0.91 | 0.81 | 92 | 1009.8 |
| 20260507203101 | 57 | 287 | 1.0 | 6.0 | 0.48 | 0.91 | 0.81 | 93 | 1009.7 |
| 20260507202547 | 57 | 0 | 1.0 | 6.0 | 0.48 | 0.91 | 0.81 | 93 | 1009.6 |
| 20260507202049 | 57 | 150 | 0.0 | 6.0 | 0.48 | 0.91 | 0.81 | 94 | 1009.8 |
| 20260507201608 | 56 | 87 | 1.0 | 6.0 | 0.48 | 0.91 | 0.81 | 93 | 1010.1 |
| 20260507201046 | 56 | 149 | 0.0 | 6.0 | 0.47 | 0.90 | 0.80 | 93 | 1010.0 |
| 20260507200545 | 56 | 107 | 1.0 | 6.0 | 0.46 | 0.89 | 0.79 | 92 | 1010.0 |
| 20260507200058 | 56 | 159 | 0.0 | 8.0 | 0.33 | 0.76 | 0.66 | 91 | 1010.0 |
| 20260507195544 | 57 | 134 | 2.0 | 8.0 | 0.19 | 0.62 | 0.52 | 90 | 1010.2 |
| 20260507195044 | 57 | 287 | 2.0 | 8.0 | 0.09 | 0.52 | 0.42 | 89 | 1009.7 |
| 20260507194634 | 58 | 74 | 0.0 | 6.0 | 0.00 | 0.43 | 0.33 | 88 | 1009.7 |
| 20260507194049 | 58 | 289 | 1.0 | 6.0 | 0.00 | 0.43 | 0.33 | 87 | 1009.8 |
| 20260507193547 | 58 | 341 | 1.0 | 9.0 | 0.00 | 0.43 | 0.33 | 88 | 1009.6 |
| 20260507193059 | 58 | 17 | 2.0 | 9.0 | 0.00 | 0.43 | 0.33 | 88 | 1009.5 |
| 20260507192547 | 59 | 299 | 2.0 | 11.0 | 0.00 | 0.43 | 0.33 | 87 | 1009.7 |
| 20260507192047 | 59 | 196 | 2.0 | 11.0 | 0.00 | 0.43 | 0.33 | 88 | 1009.6 |
| 20260507191556 | 59 | 116 | 2.0 | 6.0 | 0.00 | 0.43 | 0.33 | 87 | 1009.3 |
| 20260507191046 | 60 | 188 | 1.0 | 7.0 | 0.00 | 0.43 | 0.33 | 87 | 1009.3 |
| 20260507190548 | 60 | 226 | 3.0 | 9.0 | 0.00 | 0.43 | 0.33 | 86 | 1009.3 |
| 20260507190053 | 60 | 0 | 2.0 | 9.0 | 0.00 | 0.43 | 0.33 | 87 | 1009.3 |
| 20260507185544 | 60 | 244 | 1.0 | 9.0 | 0.00 | 0.43 | 0.33 | 87 | 1009.6 |
| 20260507185048 | 60 | 58 | 0.0 | 7.0 | 0.00 | 0.43 | 0.33 | 89 | 1009.7 |
| 20260507184603 | 60 | 230 | 1.0 | 6.0 | 0.00 | 0.43 | 0.33 | 89 | 1009.7 |
| 20260507184048 | 60 | 135 | 1.0 | 4.0 | 0.00 | 0.43 | 0.33 | 89 | 1009.6 |
| 20260507183548 | 61 | 198 | 0.0 | 4.0 | 0.00 | 0.43 | 0.33 | 89 | 1009.6 |
| 20260507183047 | 61 | 199 | 1.0 | 5.0 | 0.00 | 0.43 | 0.33 | 89 | 1009.7 |
| 20260507182547 | 61 | 0 | 1.0 | 6.0 | 0.00 | 0.43 | 0.33 | 89 | 1009.8 |
| 20260507182047 | 61 | 209 | 1.0 | 6.0 | 0.00 | 0.43 | 0.33 | 88 | 1009.9 |
| 20260507181552 | 61 | 0 | 0.0 | 5.0 | 0.00 | 0.43 | 0.33 | 89 | 1009.7 |
| 20260507181047 | 61 | 281 | 0.0 | 6.0 | 0.00 | 0.43 | 0.33 | 89 | 1009.7 |
| 20260507180551 | 61 | 126 | 0.0 | 7.0 | 0.00 | 0.43 | 0.33 | 89 | 1009.7 |
| 20260507180054 | 61 | 0 | 1.0 | 7.0 | 0.00 | 0.43 | 0.33 | 88 | 1009.6 |
| 20260507175548 | 61 | 112 | 1.0 | 8.0 | 0.00 | 0.43 | 0.33 | 89 | 1009.6 |
| 20260507175046 | 61 | 209 | 2.0 | 8.0 | 0.00 | 0.43 | 0.33 | 90 | 1009.5 |
| 20260507174553 | 61 | 271 | 2.0 | 7.0 | 0.00 | 0.43 | 0.33 | 89 | 1009.6 |
| 20260507174047 | 61 | 82 | 1.0 | 7.0 | 0.00 | 0.43 | 0.33 | 91 | 1009.8 |
| 20260507173547 | 61 | 251 | 1.0 | 4.0 | 0.00 | 0.43 | 0.33 | 91 | 1009.8 |
| 20260507173054 | 61 | 146 | 1.0 | 6.0 | 0.00 | 0.43 | 0.33 | 91 | 1009.9 |
| 20260507172547 | 62 | 125 | 1.0 | 6.0 | 0.00 | 0.43 | 0.33 | 91 | 1010.0 |
| 20260507172047 | 62 | 134 | 1.0 | 6.0 | 0.00 | 0.43 | 0.33 | 91 | 1010.0 |
| 20260507171553 | 62 | 143 | 1.0 | 3.0 | 0.00 | 0.43 | 0.33 | 91 | 1009.9 |
| 20260507171047 | 63 | 163 | 0.0 | 3.0 | 0.00 | 0.43 | 0.33 | 91 | 1009.9 |
| 20260507170550 | 63 | 110 | 0.0 | 2.0 | 0.00 | 0.43 | 0.33 | 91 | 1009.8 |
| 20260507170052 | 63 | 142 | 0.0 | 4.0 | 0.00 | 0.43 | 0.33 | 90 | 1009.9 |
| 20260507165548 | 64 | 130 | 0.0 | 7.0 | 0.00 | 0.43 | 0.33 | 90 | 1010.0 |
| 20260507165047 | 64 | 0 | 1.0 | 7.0 | 0.00 | 0.43 | 0.33 | 90 | 1009.9 |
| 20260507164600 | 65 | 117 | 0.0 | 8.0 | 0.00 | 0.43 | 0.33 | 88 | 1009.9 |
| 20260507164048 | 65 | 150 | 0.0 | 8.0 | 0.00 | 0.43 | 0.33 | 88 | 1009.4 |
| 20260507163545 | 67 | 171 | 0.0 | 8.0 | 0.00 | 0.43 | 0.33 | 90 | 1009.2 |
| 20260507163101 | 67 | 120 | 2.0 | 6.0 | 0.00 | 0.43 | 0.33 | 90 | 1009.1 |
| 20260507162548 | 67 | 176 | 1.0 | 2.0 | 0.00 | 0.43 | 0.33 | 92 | 1009.1 |
| 20260507162049 | 67 | 88 | 0.0 | 2.0 | 0.00 | 0.43 | 0.33 | 93 | 1009.0 |
| 20260507161550 | 66 | 185 | 0.0 | 3.0 | 0.00 | 0.43 | 0.33 | 95 | 1009.1 |
| 20260507161045 | 65 | 167 | 0.0 | 3.0 | 0.00 | 0.43 | 0.33 | 94 | 1009.2 |
| 20260507160548 | 65 | 130 | 0.0 | 1.0 | 0.00 | 0.43 | 0.33 | 94 | 1009.5 |
| 20260507160057 | 65 | 0 | 0.0 | 0.0 | 0.00 | 0.43 | 0.33 | 94 | 1009.4 |
| 20260507155546 | 65 | 0 | 0.0 | 0.0 | 0.00 | 0.43 | 0.33 | 95 | 1009.6 |
| 20260507155044 | 64 | 0 | 0.0 | 0.0 | 0.00 | 0.43 | 0.33 | 95 | 1009.6 |
| 20260507154559 | 64 | 0 | 0.0 | 0.0 | 0.00 | 0.43 | 0.33 | 94 | 1010.0 |
| 20260507154048 | 64 | 0 | 0.0 | 0.0 | 0.00 | 0.43 | 0.33 | 94 | 1010.0 |
| 20260507153545 | 64 | 0 | 0.0 | 1.0 | 0.01 | 0.43 | 0.33 | 95 | 1009.9 |
| 20260507153051 | 64 | 0 | 0.0 | 1.0 | 0.01 | 0.43 | 0.33 | 94 | 1010.1 |
| 20260507152547 | 64 | 132 | 0.0 | 1.0 | 0.01 | 0.43 | 0.33 | 94 | 1010.3 |
| 20260507152047 | 64 | 0 | 0.0 | 0.0 | 0.01 | 0.43 | 0.33 | 95 | 1010.2 |
| 20260507151553 | 64 | 0 | 0.0 | 1.0 | 0.01 | 0.43 | 0.33 | 95 | 1010.2 |
| 20260507151046 | 64 | 0 | 0.0 | 1.0 | 0.01 | 0.43 | 0.33 | 95 | 1010.2 |
| 20260507150547 | 64 | 0 | 0.0 | 2.0 | 0.02 | 0.43 | 0.33 | 95 | 1010.5 |
| 20260507150100 | 64 | 0 | 0.0 | 2.0 | 0.02 | 0.43 | 0.33 | 95 | 1010.7 |
| 20260507145546 | 64 | 96 | 0.0 | 2.0 | 0.02 | 0.43 | 0.33 | 95 | 1010.8 |
| 20260507145045 | 64 | 0 | 0.0 | 2.0 | 0.02 | 0.43 | 0.33 | 95 | 1010.7 |
| 20260507144554 | 64 | 111 | 0.0 | 1.0 | 0.03 | 0.43 | 0.33 | 95 | 1010.1 |
| 20260507144046 | 64 | 0 | 0.0 | 1.0 | 0.03 | 0.43 | 0.33 | 95 | 1009.8 |
| 20260507143544 | 63 | 0 | 0.0 | 1.0 | 0.02 | 0.42 | 0.32 | 95 | 1009.7 |
| 20260507143101 | 63 | 0 | 0.0 | 1.0 | 0.03 | 0.42 | 0.32 | 95 | 1009.8 |
| 20260507142547 | 63 | 0 | 0.0 | 1.0 | 0.04 | 0.42 | 0.32 | 95 | 1010.0 |
| 20260507142047 | 63 | 0 | 0.0 | 2.0 | 0.06 | 0.42 | 0.32 | 95 | 1010.0 |
| 20260507141555 | 63 | 0 | 0.0 | 2.0 | 0.06 | 0.42 | 0.32 | 95 | 1010.0 |
| 20260507141047 | 63 | 0 | 0.0 | 0.0 | 0.07 | 0.42 | 0.32 | 95 | 1010.1 |
| 20260507140547 | 63 | 0 | 0.0 | 1.0 | 0.07 | 0.41 | 0.31 | 95 | 1010.0 |
| 20260507140053 | 63 | 0 | 0.0 | 2.0 | 0.08 | 0.41 | 0.31 | 95 | 1010.2 |
| 20260507135548 | 63 | 0 | 0.0 | 2.0 | 0.10 | 0.41 | 0.31 | 96 | 1010.2 |
| 20260507135048 | 63 | 0 | 0.0 | 0.0 | 0.13 | 0.41 | 0.31 | 96 | 1010.1 |
| 20260507134559 | 63 | 0 | 0.0 | 0.0 | 0.14 | 0.40 | 0.30 | 95 | 1009.7 |
| 20260507134049 | 63 | 0 | 0.0 | 0.0 | 0.16 | 0.40 | 0.30 | 95 | 1009.3 |
| 20260507133547 | 63 | 0 | 0.0 | 0.0 | 0.17 | 0.40 | 0.30 | 95 | 1009.3 |
| 20260507133103 | 63 | 0 | 0.0 | 0.0 | 0.17 | 0.39 | 0.29 | 95 | 1009.4 |
| 20260507132546 | 63 | 0 | 0.0 | 0.0 | 0.15 | 0.37 | 0.27 | 95 | 1009.5 |
| 20260507132047 | 62 | 0 | 0.0 | 0.0 | 0.14 | 0.36 | 0.26 | 95 | 1009.8 |
| 20260507131612 | 62 | 0 | 0.0 | 0.0 | 0.14 | 0.36 | 0.26 | 95 | 1009.9 |
| 20260507131048 | 62 | 0 | 0.0 | 0.0 | 0.14 | 0.35 | 0.25 | 95 | 1010.1 |
| 20260507130548 | 62 | 0 | 0.0 | 0.0 | 0.13 | 0.34 | 0.24 | 95 | 1010.4 |
| 20260507130056 | 62 | 0 | 0.0 | 0.0 | 0.12 | 0.33 | 0.23 | 95 | 1010.7 |
| 20260507125547 | 62 | 0 | 0.0 | 0.0 | 0.11 | 0.31 | 0.21 | 95 | 1011.0 |
| 20260507125047 | 63 | 0 | 0.0 | 1.0 | 0.08 | 0.28 | 0.18 | 95 | 1011.0 |
| 20260507124551 | 63 | 0 | 0.0 | 1.0 | 0.06 | 0.26 | 0.16 | 95 | 1011.1 |
| 20260507124047 | 63 | 0 | 0.0 | 1.0 | 0.05 | 0.24 | 0.14 | 95 | 1011.4 |
| 20260507123544 | 63 | 0 | 0.0 | 0.0 | 0.04 | 0.23 | 0.13 | 95 | 1011.6 |
| 20260507123059 | 63 | 0 | 0.0 | 0.0 | 0.03 | 0.22 | 0.12 | 95 | 1011.6 |
| 20260507122545 | 63 | 0 | 0.0 | 0.0 | 0.03 | 0.22 | 0.12 | 95 | 1011.2 |
| 20260507122047 | 63 | 0 | 0.0 | 0.0 | 0.03 | 0.22 | 0.12 | 95 | 1011.0 |
| 20260507121553 | 63 | 0 | 0.0 | 0.0 | 0.03 | 0.22 | 0.12 | 95 | 1010.9 |
| 20260507121048 | 63 | 0 | 0.0 | 0.0 | 0.02 | 0.21 | 0.11 | 95 | 1010.8 |
| 20260507120547 | 63 | 0 | 0.0 | 2.0 | 0.02 | 0.21 | 0.11 | 95 | 1011.0 |
| 20260507120054 | 63 | 0 | 0.0 | 2.0 | 0.02 | 0.21 | 0.11 | 95 | 1011.0 |
| 20260507115548 | 63 | 151 | 0.0 | 1.0 | 0.01 | 0.20 | 0.10 | 95 | 1011.1 |
| 20260507115046 | 63 | 132 | 0.0 | 1.0 | 0.01 | 0.20 | 0.10 | 95 | 1010.9 |
| 20260507114549 | 63 | 130 | 0.0 | 1.0 | 0.01 | 0.20 | 0.10 | 95 | 1010.9 |
| 20260507114047 | 63 | 0 | 0.0 | 0.0 | 0.00 | 0.19 | 0.09 | 95 | 1010.8 |
| 20260507113547 | 63 | 0 | 0.0 | 0.0 | 0.00 | 0.19 | 0.09 | 95 | 1010.8 |
| 20260507113056 | 63 | 0 | 0.0 | 0.0 | 0.00 | 0.19 | 0.09 | 95 | 1010.4 |
| 20260507112549 | 63 | 0 | 0.0 | 0.0 | 0.00 | 0.19 | 0.09 | 95 | 1010.4 |
| 20260507112047 | 63 | 0 | 0.0 | 0.0 | 0.00 | 0.19 | 0.09 | 95 | 1010.8 |
| 20260507111550 | 63 | 0 | 0.0 | 0.0 | 0.00 | 0.19 | 0.09 | 95 | 1010.5 |
| 20260507111048 | 63 | 0 | 0.0 | 0.0 | 0.00 | 0.19 | 0.09 | 95 | 1010.2 |
| 20260507110547 | 63 | 0 | 0.0 | 0.0 | 0.00 | 0.19 | 0.09 | 95 | 1010.1 |
| 20260507110049 | 63 | 0 | 0.0 | 0.0 | 0.00 | 0.19 | 0.09 | 95 | 1010.1 |
| 20260507105544 | 63 | 0 | 0.0 | 0.0 | 0.01 | 0.19 | 0.09 | 95 | 1010.1 |
| 20260507105048 | 63 | 0 | 0.0 | 0.0 | 0.01 | 0.19 | 0.09 | 95 | 1010.2 |
| 20260507104550 | 63 | 0 | 0.0 | 0.0 | 0.01 | 0.19 | 0.09 | 95 | 1010.3 |
| 20260507104047 | 63 | 0 | 0.0 | 0.0 | 0.01 | 0.19 | 0.09 | 95 | 1010.4 |
| 20260507103546 | 63 | 0 | 0.0 | 0.0 | 0.01 | 0.19 | 0.09 | 95 | 1010.3 |
| 20260507103049 | 63 | 0 | 0.0 | 0.0 | 0.01 | 0.19 | 0.09 | 95 | 1010.3 |
| 20260507102548 | 63 | 0 | 0.0 | 0.0 | 0.01 | 0.19 | 0.09 | 95 | 1010.1 |
| 20260507102051 | 63 | 0 | 0.0 | 0.0 | 0.01 | 0.19 | 0.09 | 95 | 1010.2 |
| 20260507101556 | 63 | 0 | 0.0 | 0.0 | 0.01 | 0.19 | 0.09 | 95 | 1010.2 |
| 20260507101045 | 63 | 0 | 0.0 | 0.0 | 0.01 | 0.19 | 0.09 | 95 | 1010.1 |
| 20260507100546 | 63 | 0 | 0.0 | 0.0 | 0.01 | 0.19 | 0.09 | 95 | 1010.2 |
| 20260507100053 | 63 | 0 | 0.0 | 0.0 | 0.01 | 0.19 | 0.09 | 95 | 1010.3 |
| 20260507095546 | 63 | 0 | 0.0 | 0.0 | 0.00 | 0.18 | 0.08 | 95 | 1010.4 |
| 20260507095046 | 63 | 0 | 0.0 | 0.0 | 0.00 | 0.18 | 0.08 | 95 | 1010.4 |
| 20260507094557 | 63 | 0 | 0.0 | 0.0 | 0.00 | 0.18 | 0.08 | 95 | 1010.2 |
| 20260507094045 | 63 | 0 | 0.0 | 0.0 | 0.00 | 0.18 | 0.08 | 95 | 1010.4 |
| 20260507093545 | 63 | 0 | 0.0 | 0.0 | 0.00 | 0.18 | 0.08 | 95 | 1010.8 |
| 20260507093058 | 63 | 0 | 0.0 | 0.0 | 0.00 | 0.18 | 0.08 | 95 | 1010.7 |
| 20260507092550 | 63 | 0 | 0.0 | 0.0 | 0.00 | 0.18 | 0.08 | 95 | 1010.4 |
| 20260507092049 | 62 | 0 | 0.0 | 0.0 | 0.00 | 0.18 | 0.08 | 95 | 1010.3 |
| 20260507091557 | 63 | 0 | 0.0 | 0.0 | 0.00 | 0.18 | 0.08 | 95 | 1010.2 |
| 20260507091047 | 62 | 0 | 0.0 | 0.0 | 0.00 | 0.18 | 0.08 | 95 | 1010.3 |
| 20260507090546 | 62 | 0 | 0.0 | 0.0 | 0.00 | 0.18 | 0.08 | 95 | 1010.7 |
| 20260507090050 | 62 | 0 | 0.0 | 0.0 | 0.00 | 0.18 | 0.08 | 95 | 1010.9 |
| 20260507085546 | 62 | 0 | 0.0 | 0.0 | 0.00 | 0.18 | 0.08 | 95 | 1010.1 |
| 20260507085048 | 62 | 0 | 0.0 | 1.0 | 0.01 | 0.18 | 0.08 | 95 | 1010.2 |
| 20260507084552 | 63 | 0 | 0.0 | 2.0 | 0.01 | 0.18 | 0.08 | 95 | 1009.8 |
| 20260507084045 | 62 | 0 | 0.0 | 2.0 | 0.01 | 0.18 | 0.08 | 95 | 1009.8 |
| 20260507083546 | 63 | 330 | 0.0 | 2.0 | 0.01 | 0.18 | 0.08 | 95 | 1009.4 |
| 20260507083054 | 62 | 0 | 0.0 | 2.0 | 0.01 | 0.18 | 0.08 | 95 | 1009.7 |
| 20260507082545 | 62 | 0 | 0.0 | 2.0 | 0.02 | 0.18 | 0.08 | 95 | 1010.1 |
| 20260507082045 | 62 | 0 | 0.0 | 3.0 | 0.02 | 0.18 | 0.08 | 95 | 1010.2 |
| 20260507081555 | 62 | 109 | 0.0 | 3.0 | 0.02 | 0.18 | 0.08 | 95 | 1010.3 |
| 20260507081046 | 62 | 0 | 0.0 | 0.0 | 0.02 | 0.18 | 0.08 | 94 | 1010.1 |
| 20260507080546 | 62 | 0 | 0.0 | 3.0 | 0.02 | 0.18 | 0.08 | 94 | 1010.2 |
| 20260507080108 | 62 | 0 | 0.0 | 3.0 | 0.02 | 0.18 | 0.08 | 94 | 1010.3 |
| 20260507075544 | 62 | 90 | 0.0 | 2.0 | 0.01 | 0.17 | 0.07 | 94 | 1010.4 |
| 20260507075044 | 62 | 334 | 0.0 | 3.0 | 0.01 | 0.17 | 0.07 | 94 | 1010.3 |
| 20260507074556 | 62 | 51 | 0.0 | 3.0 | 0.01 | 0.17 | 0.07 | 94 | 1010.4 |
| 20260507074046 | 62 | 0 | 0.0 | 3.0 | 0.01 | 0.17 | 0.07 | 94 | 1010.7 |
| 20260507073549 | 62 | 0 | 0.0 | 3.0 | 0.01 | 0.17 | 0.07 | 94 | 1010.8 |
| 20260507073052 | 62 | 86 | 0.0 | 4.0 | 0.01 | 0.17 | 0.07 | 94 | 1011.1 |
| 20260507072547 | 62 | 0 | 1.0 | 6.0 | 0.00 | 0.16 | 0.06 | 94 | 1011.2 |
| 20260507072049 | 62 | 67 | 1.0 | 6.0 | 0.00 | 0.16 | 0.06 | 94 | 1011.5 |
| 20260507071607 | 62 | 0 | 0.0 | 3.0 | 0.00 | 0.16 | 0.06 | 94 | 1011.3 |
| 20260507071046 | 62 | 0 | 0.0 | 3.0 | 0.00 | 0.16 | 0.06 | 94 | 1011.3 |
| 20260507070547 | 62 | 0 | 0.0 | 1.0 | 0.00 | 0.16 | 0.06 | 94 | 1011.0 |
| 20260507070056 | 62 | 0 | 0.0 | 2.0 | 0.00 | 0.16 | 0.06 | 94 | 1011.3 |
| 20260507065548 | 62 | 0 | 0.0 | 3.0 | 0.00 | 0.16 | 0.06 | 94 | 1011.2 |
| 20260507065044 | 62 | 81 | 0.0 | 3.0 | 0.00 | 0.16 | 0.06 | 94 | 1011.2 |
| 20260507064550 | 62 | 0 | 0.0 | 0.0 | 0.01 | 0.16 | 0.06 | 94 | 1011.3 |
| 20260507064047 | 62 | 0 | 0.0 | 0.0 | 0.01 | 0.16 | 0.06 | 94 | 1011.4 |
| 20260507063548 | 62 | 0 | 0.0 | 0.0 | 0.01 | 0.16 | 0.06 | 94 | 1011.4 |
| 20260507063055 | 62 | 0 | 0.0 | 0.0 | 0.01 | 0.16 | 0.06 | 94 | 1011.3 |
| 20260507062549 | 62 | 0 | 0.0 | 0.0 | 0.02 | 0.16 | 0.06 | 94 | 1011.5 |
| 20260507062044 | 62 | 0 | 0.0 | 0.0 | 0.04 | 0.16 | 0.06 | 94 | 1011.5 |
| 20260507061556 | 62 | 0 | 0.0 | 0.0 | 0.04 | 0.16 | 0.06 | 94 | 1011.5 |
| 20260507061131 | 62 | 0 | 0.0 | 1.0 | 0.05 | 0.16 | 0.06 | 94 | 1011.5 |
| 20260507060547 | 62 | 0 | 0.0 | 1.0 | 0.06 | 0.16 | 0.06 | 94 | 1011.6 |
| 20260507060056 | 62 | 0 | 0.0 | 1.0 | 0.06 | 0.16 | 0.06 | 94 | 1012.1 |
| 20260507055548 | 62 | 0 | 0.0 | 0.0 | 0.06 | 0.16 | 0.06 | 94 | 1012.6 |
| 20260507055047 | 62 | 0 | 0.0 | 0.0 | 0.06 | 0.16 | 0.06 | 94 | 1012.9 |
| 20260507054552 | 62 | 0 | 0.0 | 0.0 | 0.05 | 0.15 | 0.05 | 94 | 1012.9 |
| 20260507054048 | 62 | 0 | 0.0 | 2.0 | 0.05 | 0.15 | 0.05 | 93 | 1012.5 |
| 20260507053547 | 62 | 0 | 0.0 | 2.0 | 0.05 | 0.15 | 0.05 | 93 | 1012.7 |
| 20260507053115 | 62 | 172 | 0.0 | 1.0 | 0.05 | 0.15 | 0.05 | 93 | 1012.7 |
| 20260507052548 | 62 | 0 | 0.0 | 1.0 | 0.04 | 0.14 | 0.04 | 93 | 1012.4 |
| 20260507052048 | 62 | 0 | 0.0 | 1.0 | 0.02 | 0.12 | 0.02 | 93 | 1012.1 |
| 20260507051559 | 62 | 0 | 0.0 | 2.0 | 0.02 | 0.12 | 0.02 | 93 | 1013.2 |
| 20260507051049 | 62 | 119 | 0.0 | 2.0 | 0.01 | 0.11 | 0.01 | 93 | 1013.3 |
| 20260507050547 | 62 | 155 | 0.0 | 2.0 | 0.00 | 0.10 | 0.00 | 93 | 1013.2 |
| 20260507050055 | 62 | 128 | 0.0 | 3.0 | 0.00 | 0.10 | 0.00 | 93 | 1012.8 |
| 20260507045548 | 62 | 0 | 0.0 | 3.0 | 0.00 | 0.10 | 0.00 | 93 | 1012.8 |
| 20260507045047 | 62 | 76 | 0.0 | 3.0 | 0.01 | 0.10 | 0.00 | 93 | 1012.8 |
| 20260507044558 | 62 | 0 | 0.0 | 0.0 | 0.01 | 0.10 | 0.00 | 93 | 1012.7 |
| 20260507044047 | 62 | 0 | 0.0 | 0.0 | 0.01 | 0.10 | 0.00 | 93 | 1012.6 |
| 20260507043544 | 62 | 0 | 0.0 | 0.0 | 0.01 | 0.10 | 0.00 | 92 | 1012.7 |
| 20260507043053 | 63 | 0 | 0.0 | 0.0 | 0.02 | 0.10 | 0.00 | 92 | 1012.7 |
| 20260507042548 | 63 | 0 | 0.0 | 0.0 | 0.02 | 0.10 | 0.00 | 92 | 1012.8 |
| 20260507042047 | 63 | 0 | 0.0 | 0.0 | 0.02 | 0.10 | 0.00 | 92 | 1012.7 |
| 20260507041549 | 63 | 0 | 0.0 | 0.0 | 0.03 | 0.10 | 0.00 | 92 | 1012.3 |
| 20260507041051 | 63 | 0 | 0.0 | 1.0 | 0.03 | 0.10 | 0.00 | 92 | 1012.2 |
| 20260507040548 | 63 | 0 | 0.0 | 3.0 | 0.04 | 0.10 | 0.00 | 92 | 1012.0 |
| 20260507040051 | 63 | 0 | 0.0 | 4.0 | 0.06 | 0.10 | 0.00 | 91 | 1011.5 |
| 20260507035548 | 63 | 67 | 1.0 | 4.0 | 0.07 | 0.10 | 0.10 | 91 | 1012.0 |
| 20260507035047 | 63 | 0 | 0.0 | 3.0 | 0.06 | 0.09 | 0.09 | 91 | 1012.4 |
| 20260507034555 | 63 | 89 | 0.0 | 6.0 | 0.06 | 0.09 | 0.09 | 91 | 1012.4 |
| 20260507034048 | 64 | 0 | 1.0 | 6.0 | 0.06 | 0.09 | 0.09 | 91 | 1012.0 |
| 20260507033547 | 64 | 89 | 1.0 | 6.0 | 0.06 | 0.09 | 0.09 | 91 | 1012.6 |
| 20260507033057 | 64 | 277 | 1.0 | 10.0 | 0.05 | 0.08 | 0.08 | 90 | 1011.8 |
| 20260507032547 | 64 | 84 | 2.0 | 10.0 | 0.06 | 0.08 | 0.08 | 90 | 1013.4 |
| 20260507032048 | 64 | 65 | 4.0 | 10.0 | 0.06 | 0.08 | 0.08 | 89 | 1013.8 |
| 20260507031556 | 65 | 67 | 4.0 | 10.0 | 0.05 | 0.07 | 0.07 | 89 | 1014.0 |
| 20260507031048 | 65 | 77 | 2.0 | 11.0 | 0.05 | 0.07 | 0.07 | 89 | 1013.8 |
| 20260507030548 | 65 | 32 | 3.0 | 11.0 | 0.04 | 0.06 | 0.06 | 89 | 1013.7 |
| 20260507030053 | 65 | 70 | 4.0 | 11.0 | 0.02 | 0.04 | 0.04 | 88 | 1013.5 |
| 20260507025548 | 65 | 71 | 3.0 | 9.0 | 0.01 | 0.03 | 0.03 | 89 | 1013.6 |
| 20260507025051 | 66 | 88 | 2.0 | 9.0 | 0.01 | 0.03 | 0.03 | 89 | 1013.5 |
| 20260507024601 | 66 | 74 | 3.0 | 9.0 | 0.01 | 0.03 | 0.03 | 89 | 1013.3 |
| 20260507024044 | 66 | 71 | 2.0 | 7.0 | 0.02 | 0.03 | 0.03 | 89 | 1013.2 |
| 20260507023544 | 66 | 42 | 2.0 | 7.0 | 0.02 | 0.03 | 0.03 | 89 | 1013.1 |
| 20260507023051 | 66 | 298 | 2.0 | 11.0 | 0.02 | 0.03 | 0.03 | 89 | 1013.1 |
| 20260507022547 | 66 | 77 | 4.0 | 11.0 | 0.01 | 0.02 | 0.02 | 90 | 1013.2 |
| 20260507022048 | 66 | 128 | 2.0 | 7.0 | 0.01 | 0.02 | 0.02 | 90 | 1013.1 |
| 20260507021550 | 66 | 76 | 1.0 | 7.0 | 0.02 | 0.02 | 0.02 | 90 | 1013.0 |
| 20260507021047 | 66 | 330 | 1.0 | 4.0 | 0.02 | 0.02 | 0.02 | 90 | 1012.9 |
| 20260507020548 | 66 | 79 | 1.0 | 4.0 | 0.02 | 0.02 | 0.02 | 90 | 1012.9 |
| 20260507020049 | 66 | 98 | 0.0 | 4.0 | 0.02 | 0.02 | 0.02 | 90 | 1012.8 |
| 20260507015545 | 66 | 0 | 1.0 | 4.0 | 0.02 | 0.02 | 0.02 | 90 | 1012.6 |
| 20260507015047 | 66 | 0 | 1.0 | 3.0 | 0.02 | 0.02 | 0.02 | 90 | 1012.5 |
| 20260507014602 | 66 | 0 | 0.0 | 0.0 | 0.01 | 0.01 | 0.01 | 90 | 1012.0 |
| 20260507014048 | 66 | 0 | 0.0 | 2.0 | 0.01 | 0.01 | 0.01 | 89 | 1011.8 |
| 20260507013551 | 66 | 0 | 0.0 | 2.0 | 0.01 | 0.01 | 0.01 | 89 | 1011.7 |
| 20260507013053 | 66 | 65 | 0.0 | 2.0 | 0.01 | 0.01 | 0.01 | 89 | 1011.8 |
| 20260507012550 | 66 | 68 | 0.0 | 2.0 | 0.01 | 0.01 | 0.01 | 89 | 1011.9 |
| 20260507012048 | 66 | 0 | 0.0 | 1.0 | 0.01 | 0.01 | 0.01 | 89 | 1012.0 |
| 20260507011551 | 66 | 0 | 0.0 | 1.0 | 0.00 | 0.00 | 0.00 | 88 | 1012.1 |
| 20260507011046 | 66 | 0 | 0.0 | 1.0 | 0.00 | 0.00 | 0.00 | 88 | 1012.3 |
| 20260507010544 | 66 | 0 | 0.0 | 1.0 | 0.00 | 0.00 | 0.00 | 88 | 1012.3 |
| 20260507005547 | 66 | 0 | 0.0 | 1.0 | 0.00 | 0.00 | 0.00 | 87 | 1012.6 |
| 20260507005048 | 66 | 0 | 0.0 | 3.0 | 0.00 | 0.00 | 0.00 | 87 | 1012.5 |
| 20260507004605 | 67 | 0 | 1.0 | 3.0 | 0.00 | 0.00 | 0.00 | 87 | 1012.6 |